Date String (YYYY-MM-DD hh:mm:ss) UTC,Instrument flags,Ambient pressure (hPa),Sample flow (lpm),Bypass flow (lpm),Sample temperature (°C),Ambient temperature (°C),ASC tube jacket temperature (°C),LED temperature (°C),Box temperature (°C),Sample RH (%),Span deviation,Mass concentration (μg/m³),Mass concentration (μg/m³),Mass concentration (μg/m³)
DateTimeUTC,F1_M11,P_M11,Q1_M11,Q2_M11,T1_M11,T2_M11,T3_M11,T4_M11,T5_M11,U1_M11,ZSPAN_M11,X0_M11,X2_M11,X1_M11
2022-01-21 06:00:00,,0823.6,5.01,0.00,22.1,21.4,00.0,31.1,23.8,13.2,-001.3,0019.97,0015.23,0014.84
2022-01-21 06:01:00,,0823.5,4.99,0.00,22.2,22.0,00.0,31.1,23.9,13.1,-001.3,0020.09,0015.28,0014.89
2022-01-21 06:02:00,,0823.5,5.00,0.00,22.3,22.7,00.0,31.2,24.2,13.0,-001.3,0020.53,0015.32,0014.93
2022-01-21 06:03:00,,0823.6,5.00,0.00,22.4,23.1,00.0,31.2,24.4,12.9,-001.1,0020.42,0015.31,0014.95
2022-01-21 06:04:00,,0823.6,5.00,0.00,22.4,22.9,00.0,31.2,24.4,12.9,-001.1,0020.45,0015.32,0014.96
2022-01-21 06:05:00,,0823.5,5.00,0.00,22.5,22.7,00.0,31.3,24.4,12.9,-001.1,0021.16,0015.38,0014.99
2022-01-21 06:06:00,,0823.5,5.01,0.00,22.5,22.5,00.0,31.3,24.3,12.9,-001.1,0021.27,0015.43,0015.03
2022-01-21 06:07:00,,0823.6,4.98,0.00,22.4,22.3,00.0,31.3,24.2,12.9,-001.1,0021.34,0015.47,0015.04
2022-01-21 06:08:00,,0823.7,5.01,0.00,22.4,22.2,00.0,31.3,24.2,12.9,-001.1,0021.66,0015.55,0015.10
2022-01-21 06:09:00,,0823.6,5.00,0.00,22.4,22.1,00.0,31.3,24.2,12.9,-001.1,0021.70,0015.58,0015.12
2022-01-21 06:10:00,,0823.7,4.99,0.00,22.4,21.9,00.0,31.3,24.1,12.9,-001.1,0021.81,0015.61,0015.13
2022-01-21 06:11:00,,0823.6,5.00,0.00,22.4,21.8,00.0,31.3,24.1,13.0,-001.3,0021.75,0015.55,0015.08
2022-01-21 06:12:00,,0823.6,5.01,0.00,22.3,21.7,00.0,31.3,24.0,13.0,-001.4,0021.73,0015.54,0015.04
2022-01-21 06:13:00,,0823.5,4.99,0.00,22.3,21.7,00.0,31.3,24.0,13.0,-001.4,0021.44,0015.51,0015.01
2022-01-21 06:14:00,,0823.6,5.01,0.00,22.2,21.6,00.0,31.2,23.9,13.1,-001.5,0021.32,0015.51,0015.01
2022-01-21 06:15:00,,0823.6,5.01,0.00,22.2,21.5,00.0,31.2,23.9,13.1,-001.5,0021.28,0015.49,0014.99
2022-01-21 06:16:00,,0823.6,4.98,0.00,22.2,21.4,00.0,31.2,23.8,13.1,-001.5,0020.32,0015.34,0014.86
2022-01-21 06:17:00,,0823.7,5.01,0.00,22.1,21.3,00.0,31.2,23.8,13.1,-001.6,0019.87,0015.06,0014.62
2022-01-21 06:18:00,,0823.7,4.99,0.00,22.1,21.3,00.0,31.2,23.7,13.2,-001.6,0019.63,0014.93,0014.51
2022-01-21 06:19:00,,0823.6,5.01,0.00,22.1,21.3,00.0,31.1,23.7,13.2,-001.5,0019.24,0014.80,0014.39
2022-01-21 06:20:00,,0823.6,5.01,0.00,22.0,21.2,00.0,31.1,23.7,13.2,-001.5,0018.94,0014.58,0014.18
2022-01-21 06:21:00,,0823.6,4.98,0.00,22.0,21.0,00.0,31.1,23.6,13.2,-001.4,0018.56,0014.35,0013.95
2022-01-21 06:22:00,,0823.6,5.02,0.00,21.9,21.0,00.0,31.1,23.5,13.3,-001.2,0018.38,0014.22,0013.83
2022-01-21 06:23:00,,0823.4,4.99,0.00,21.9,21.1,00.0,31.0,23.6,13.3,-001.2,0018.09,0014.05,0013.70
2022-01-21 06:24:00,,0823.4,5.01,0.00,21.9,21.2,00.0,31.0,23.6,13.3,-001.2,0017.86,0013.88,0013.55
2022-01-21 06:25:00,,0823.6,4.99,0.00,22.0,21.8,00.0,31.0,23.7,13.2,-001.3,0017.76,0013.80,0013.46
2022-01-21 06:26:00,,0823.6,5.00,0.00,22.1,22.7,00.0,31.1,24.1,13.1,-001.4,0017.81,0013.83,0013.47
2022-01-21 06:27:00,,0823.6,5.01,0.00,22.3,23.1,00.0,31.1,24.3,13.0,-001.4,0017.82,0013.87,0013.49
2022-01-21 06:28:00,,0823.4,5.00,0.00,22.3,22.9,00.0,31.1,24.3,13.0,-001.2,0018.12,0014.06,0013.65
2022-01-21 06:29:00,,0823.5,5.01,0.00,22.4,22.7,00.0,31.2,24.3,13.0,-001.2,0018.44,0014.28,0013.86
2022-01-21 06:30:00,,0823.3,4.99,0.00,22.4,22.5,00.0,31.2,24.2,12.9,-001.3,0018.62,0014.41,0014.01
2022-01-21 06:31:00,,0823.4,5.01,0.00,22.4,22.3,00.0,31.2,24.2,12.9,-001.3,0018.86,0014.60,0014.22
2022-01-21 06:32:00,,0823.4,5.00,0.00,22.3,22.2,00.0,31.2,24.2,13.0,-001.2,0019.21,0014.87,0014.50
2022-01-21 06:33:00,,0823.4,4.98,0.00,22.3,22.1,00.0,31.2,24.1,13.0,-001.1,0019.40,0015.05,0014.68
2022-01-21 06:34:00,,0823.4,5.01,0.00,22.3,22.0,00.0,31.2,24.1,13.0,-001.0,0019.61,0015.20,0014.81
2022-01-21 06:35:00,,0823.3,4.99,0.00,22.3,21.9,00.0,31.2,24.1,13.0,-000.8,0020.31,0015.42,0015.00
2022-01-21 06:36:00,,0823.3,4.99,0.00,22.3,21.8,00.0,31.2,24.1,13.0,-000.7,0020.57,0015.60,0015.17
2022-01-21 06:37:00,,0823.3,5.02,0.00,22.3,21.8,00.0,31.2,24.0,13.0,-000.9,0020.63,0015.67,0015.27
2022-01-21 06:38:00,,0823.2,4.99,0.00,22.3,21.7,00.0,31.2,24.0,13.0,-000.9,0020.64,0015.68,0015.30
2022-01-21 06:39:00,,0823.3,5.01,0.00,22.2,21.7,00.0,31.2,24.0,13.0,-001.0,0020.48,0015.60,0015.26
2022-01-21 06:40:00,,0823.3,4.99,0.00,22.2,21.6,00.0,31.2,23.9,13.0,-001.1,0020.40,0015.54,0015.20
2022-01-21 06:41:00,,0823.3,5.02,0.00,22.2,21.6,00.0,31.2,23.9,13.1,-001.1,0020.37,0015.47,0015.11
2022-01-21 06:42:00,,0823.3,4.99,0.00,22.2,21.5,00.0,31.2,23.9,13.1,-001.3,0020.35,0015.46,0015.09
2022-01-21 06:43:00,,0823.4,5.00,0.00,22.2,21.5,00.0,31.2,23.9,13.1,-001.5,0020.28,0015.38,0015.02
2022-01-21 06:44:00,,0823.3,5.00,0.00,22.2,21.5,00.0,31.2,23.9,13.1,-001.6,0020.29,0015.37,0014.99
2022-01-21 06:45:00,,0823.3,5.00,0.00,22.2,21.5,00.0,31.2,23.9,13.1,-001.7,0020.37,0015.40,0015.02
2022-01-21 06:46:00,,0823.3,5.00,0.00,22.1,21.5,00.0,31.2,23.9,13.1,-001.7,0020.00,0015.42,0015.07
2022-01-21 06:47:00,,0823.3,4.99,0.00,22.1,21.4,00.0,31.1,23.9,13.1,-001.7,0020.00,0015.42,0015.07
2022-01-21 06:48:00,,0823.2,5.01,0.00,22.1,21.4,00.0,31.1,23.9,13.1,-001.6,0019.93,0015.38,0015.04
2022-01-21 06:49:00,,0823.1,5.01,0.00,22.1,21.4,00.0,31.1,23.9,13.1,-001.5,0020.00,0015.44,0015.09
2022-01-21 06:50:00,,0823.0,5.00,0.00,22.1,21.4,00.0,31.1,23.8,13.1,-001.4,0019.97,0015.42,0015.06
2022-01-21 06:51:00,,0823.1,5.01,0.00,22.1,21.4,00.0,31.1,23.8,13.1,-001.2,0019.80,0015.31,0014.96
2022-01-21 06:52:00,,0823.1,4.99,0.00,22.1,21.9,00.0,31.1,23.9,13.1,-001.0,0019.71,0015.28,0014.92
2022-01-21 06:53:00,,0823.1,5.01,0.00,22.2,22.6,00.0,31.2,24.1,13.0,-000.9,0019.54,0015.15,0014.81
2022-01-21 06:54:00,,0823.1,5.00,0.00,22.4,23.1,00.0,31.2,24.3,12.9,-000.8,0019.38,0015.04,0014.68
2022-01-21 06:55:00,,0823.1,5.00,0.00,22.4,22.9,00.0,31.2,24.4,12.8,-000.9,0019.29,0014.93,0014.56
2022-01-21 06:56:00,,0823.1,5.00,0.00,22.4,22.7,00.0,31.2,24.3,12.8,-000.8,0018.98,0014.73,0014.38
2022-01-21 06:57:00,,0823.2,5.01,0.00,22.4,22.5,00.0,31.3,24.3,12.8,-001.0,0018.76,0014.53,0014.18
2022-01-21 06:58:00,,0823.1,4.98,0.00,22.4,22.3,00.0,31.3,24.2,12.8,-001.0,0018.58,0014.38,0014.04
2022-01-21 06:59:00,,0823.1,5.02,0.00,22.4,22.2,00.0,31.3,24.2,12.8,-001.1,0018.35,0014.21,0013.88
